Location: Chagrin Falls Park
(41.4139°N, 81.3865°W)
Time: 00:16:07
(UTC+00:00)

STARLINK-2720 - Pass Details

Date: 31 July 2021
Orbit: 546 x 548 km, 53.1° (Epoch: 20 September)

Event Time Altitude Azimuth Distance (km) Brightness Sun altitude
Rises 03:18:05 0° 290° (WNW) 2,718 8.0 -22.8°
Reaches altitude 10° 03:21:19 10° 264° (W) 1,818 6.6 -23.1°
Enters shadow 03:23:13 13° 236° (WSW) 1,612 6.0 -23.3°
